Time,TemperatureF,DewpointF,PressureIn,WindDirection,WindDirectionDegrees,WindSpeedMPH,WindSpeedGustMPH,Humidity,HourlyPrecipIn,Conditions,Clouds,dailyrainin,SolarRadiationWatts/m^2,SoftwareType,DateUTC
2013-03-25 00:05:00,28.2,16.8,29.87,NE,43,7.0,0.0,62,0.00,,,0.00,0,WeatherHawk,2013-03-25 05:05:00,
2013-03-25 00:11:00,28.5,17.1,29.87,NE,39,9.0,0.0,62,0.00,,,0.00,0,WeatherHawk,2013-03-25 05:11:00,
2013-03-25 00:16:00,28.0,16.7,29.87,NNE,23,9.0,0.0,62,0.00,,,0.00,0,WeatherHawk,2013-03-25 05:16:00,
2013-03-25 00:22:00,28.1,16.4,29.87,NNE,16,7.0,0.0,61,0.00,,,0.00,0,WeatherHawk,2013-03-25 05:22:00,
2013-03-25 00:28:00,28.0,16.7,29.87,NNE,23,9.0,0.0,62,0.00,,,0.00,0,WeatherHawk,2013-03-25 05:28:00,
2013-03-25 00:33:00,27.7,16.4,29.87,NNE,30,7.0,0.0,62,0.00,,,0.00,0,WeatherHawk,2013-03-25 05:33:00,
2013-03-25 00:38:00,27.9,16.6,29.87,NE,43,9.0,0.0,62,0.00,,,0.00,0,WeatherHawk,2013-03-25 05:38:00,
2013-03-25 00:43:00,27.7,16.4,29.87,NE,38,12.0,0.0,62,0.00,,,0.00,0,WeatherHawk,2013-03-25 05:43:00,
2013-03-25 00:49:00,27.5,16.2,29.87,NE,42,4.0,0.0,62,0.00,,,0.00,0,WeatherHawk,2013-03-25 05:49:00,
2013-03-25 00:54:00,27.6,16.3,29.87,NNE,33,8.0,0.0,62,0.00,,,0.00,0,WeatherHawk,2013-03-25 05:54:00,
2013-03-25 00:59:00,27.5,15.9,29.87,NNE,14,5.0,0.0,61,0.00,,,0.00,0,WeatherHawk,2013-03-25 05:59:00,
2013-03-25 01:04:00,27.5,15.8,29.88,NNW,348,6.0,0.0,61,0.00,,,0.00,0,WeatherHawk,2013-03-25 06:04:00,
2013-03-25 01:09:00,27.4,15.7,29.88,North,11,7.0,0.0,61,0.00,,,0.00,0,WeatherHawk,2013-03-25 06:09:00,
2013-03-25 01:14:00,27.3,15.6,29.88,NNE,30,7.0,0.0,61,0.00,,,0.00,0,WeatherHawk,2013-03-25 06:14:00,
2013-03-25 01:19:00,27.1,15.0,29.87,North,2,9.0,0.0,60,0.00,,,0.00,0,WeatherHawk,2013-03-25 06:19:00,
2013-03-25 01:24:00,26.9,15.3,29.88,North,6,8.0,0.0,61,0.00,,,0.00,0,WeatherHawk,2013-03-25 06:24:00,
2013-03-25 01:30:00,26.5,14.9,29.88,NNE,30,4.0,0.0,61,0.00,,,0.00,0,WeatherHawk,2013-03-25 06:30:00,
2013-03-25 01:35:00,26.1,14.9,29.88,North,0,5.0,0.0,62,0.00,,,0.00,0,WeatherHawk,2013-03-25 06:35:00,
2013-03-25 01:40:00,26.3,14.7,29.88,North,9,7.0,0.0,61,0.00,,,0.00,0,WeatherHawk,2013-03-25 06:40:00,
2013-03-25 01:45:00,25.9,14.3,29.88,North,0,6.0,0.0,61,0.00,,,0.00,0,WeatherHawk,2013-03-25 06:45:00,
2013-03-25 01:50:00,26.0,14.4,29.88,NNE,17,7.0,0.0,61,0.00,,,0.00,0,WeatherHawk,2013-03-25 06:50:00,
2013-03-25 01:55:00,25.5,14.3,29.88,North,7,5.0,0.0,62,0.00,,,0.00,1,WeatherHawk,2013-03-25 06:55:00,
2013-03-25 02:00:00,25.9,14.7,29.88,North,0,8.0,0.0,62,0.00,,,0.00,0,WeatherHawk,2013-03-25 07:00:00,
2013-03-25 02:05:00,25.7,14.9,29.88,NE,38,9.0,0.0,63,0.00,,,0.00,0,WeatherHawk,2013-03-25 07:05:00,
2013-03-25 02:10:00,25.6,14.8,29.88,NNE,23,6.0,0.0,63,0.00,,,0.00,0,WeatherHawk,2013-03-25 07:10:00,
2013-03-25 02:15:00,25.7,14.8,29.88,NE,41,8.0,0.0,63,0.00,,,0.00,0,WeatherHawk,2013-03-25 07:15:00,
2013-03-25 02:20:00,25.1,14.3,29.88,NNE,18,5.0,0.0,63,0.00,,,0.00,0,WeatherHawk,2013-03-25 07:20:00,
2013-03-25 02:25:00,25.2,14.8,29.88,NNW,346,8.0,0.0,64,0.00,,,0.00,0,WeatherHawk,2013-03-25 07:25:00,
2013-03-25 02:30:00,24.9,14.9,29.88,NNW,343,7.0,0.0,65,0.00,,,0.00,0,WeatherHawk,2013-03-25 07:30:00,
2013-03-25 02:35:00,25.2,14.8,29.88,North,351,6.0,0.0,64,0.00,,,0.00,0,WeatherHawk,2013-03-25 07:35:00,
2013-03-25 02:40:00,25.4,15.0,29.88,North,0,10.0,0.0,64,0.00,,,0.00,0,WeatherHawk,2013-03-25 07:40:00,
2013-03-25 02:45:00,25.2,14.8,29.88,North,5,7.0,0.0,64,0.00,,,0.00,0,WeatherHawk,2013-03-25 07:45:00,
2013-03-25 02:50:00,25.0,14.6,29.88,North,351,4.0,0.0,64,0.00,,,0.00,0,WeatherHawk,2013-03-25 07:50:00,
2013-03-25 02:55:00,25.4,15.3,29.88,NNE,14,6.0,0.0,65,0.00,,,0.00,0,WeatherHawk,2013-03-25 07:55:00,
2013-03-25 03:00:00,25.2,15.1,29.87,NNE,14,7.0,-999.0,65,0.00,,,0.00,0,WeatherHawk,2013-03-25 08:00:00,
2013-03-25 03:05:00,25.5,15.4,29.87,North,0,7.0,-999.0,65,0.00,,,0.00,0,WeatherHawk,2013-03-25 08:05:00,
2013-03-25 03:10:00,25.5,15.0,29.87,North,5,7.0,0.0,64,0.00,,,0.00,0,WeatherHawk,2013-03-25 08:10:00,
2013-03-25 03:15:00,25.2,15.1,29.88,NNE,12,5.0,0.0,65,0.00,,,0.00,1,WeatherHawk,2013-03-25 08:15:00,
2013-03-25 03:20:00,25.0,14.5,29.87,North,1,6.0,-999.0,64,0.00,,,0.00,0,WeatherHawk,2013-03-25 08:20:00,
2013-03-25 03:25:00,24.7,14.6,29.87,NNW,345,4.0,0.0,65,0.00,,,0.00,0,WeatherHawk,2013-03-25 08:25:00,
2013-03-25 03:30:00,24.9,14.4,29.87,NNW,334,5.0,0.0,64,0.00,,,0.00,0,WeatherHawk,2013-03-25 08:30:00,
2013-03-25 03:35:00,25.0,14.9,29.88,NNW,341,8.0,0.0,65,0.00,,,0.00,0,WeatherHawk,2013-03-25 08:35:00,
2013-03-25 03:40:00,25.1,15.0,29.87,NNW,347,6.0,0.0,65,0.00,,,0.00,0,WeatherHawk,2013-03-25 08:40:00,
2013-03-25 03:45:00,25.0,14.9,29.87,North,351,5.0,0.0,65,0.00,,,0.00,0,WeatherHawk,2013-03-25 08:45:00,
2013-03-25 03:50:00,25.1,15.0,29.87,North,4,7.0,0.0,65,0.00,,,0.00,0,WeatherHawk,2013-03-25 08:50:00,
2013-03-25 03:55:00,24.8,14.7,29.87,NNW,335,5.0,0.0,65,0.00,,,0.00,0,WeatherHawk,2013-03-25 08:55:00,
2013-03-25 04:00:00,24.8,14.8,29.87,North,8,5.0,-999.0,65,0.00,,,0.00,0,WeatherHawk,2013-03-25 09:00:00,
2013-03-25 04:05:00,24.9,15.2,29.87,NE,38,6.0,0.0,66,0.00,,,0.00,1,WeatherHawk,2013-03-25 09:05:00,
2013-03-25 04:10:00,24.7,15.0,29.87,North,351,6.0,0.0,66,0.00,,,0.00,0,WeatherHawk,2013-03-25 09:10:00,
2013-03-25 04:15:00,24.6,14.9,29.87,North,350,5.0,0.0,66,0.00,,,0.00,0,WeatherHawk,2013-03-25 09:15:00,
2013-03-25 04:20:00,25.0,15.6,29.87,North,9,5.0,0.0,67,0.00,,,0.00,0,WeatherHawk,2013-03-25 09:20:00,
2013-03-25 04:25:00,25.0,15.3,29.87,NNW,339,6.0,0.0,66,0.00,,,0.00,0,WeatherHawk,2013-03-25 09:25:00,
2013-03-25 04:30:00,25.1,15.4,29.87,North,350,5.0,0.0,66,0.00,,,0.00,0,WeatherHawk,2013-03-25 09:30:00,
2013-03-25 04:35:00,25.0,15.2,29.87,NNW,329,5.0,0.0,66,0.00,,,0.00,0,WeatherHawk,2013-03-25 09:35:00,
2013-03-25 04:40:00,25.0,15.3,29.87,North,6,5.0,0.0,66,0.00,,,0.00,0,WeatherHawk,2013-03-25 09:40:00,
2013-03-25 04:45:00,25.1,15.4,29.87,North,4,6.0,0.0,66,0.00,,,0.00,0,WeatherHawk,2013-03-25 09:45:00,
2013-03-25 04:50:00,25.0,15.7,29.87,NE,38,4.0,0.0,67,0.00,,,0.00,0,WeatherHawk,2013-03-25 09:50:00,
2013-03-25 04:55:00,25.2,15.4,29.87,North,349,6.0,0.0,66,0.00,,,0.00,0,WeatherHawk,2013-03-25 09:55:00,
2013-03-25 05:00:00,25.0,15.6,29.88,North,1,6.0,0.0,67,0.00,,,0.00,1,WeatherHawk,2013-03-25 10:00:00,
2013-03-25 05:05:00,25.1,15.7,29.87,NE,38,6.0,0.0,67,0.00,,,0.00,0,WeatherHawk,2013-03-25 10:05:00,
2013-03-25 05:10:00,24.9,15.9,29.87,North,351,4.0,0.0,68,0.00,,,0.00,0,WeatherHawk,2013-03-25 10:10:00,
2013-03-25 05:15:00,25.0,15.9,29.88,NE,38,4.0,0.0,68,0.00,,,0.00,0,WeatherHawk,2013-03-25 10:15:00,
2013-03-25 05:20:00,24.9,16.2,29.88,NNW,342,4.0,0.0,69,0.00,,,0.00,0,WeatherHawk,2013-03-25 10:20:00,
2013-03-25 05:25:00,25.0,16.3,29.88,North,350,5.0,0.0,69,0.00,,,0.00,0,WeatherHawk,2013-03-25 10:25:00,
2013-03-25 05:30:00,25.2,16.8,29.88,NNW,348,7.0,0.0,70,0.00,,,0.00,0,WeatherHawk,2013-03-25 10:30:00,
2013-03-25 05:35:00,25.3,16.6,29.88,North,8,9.0,0.0,69,0.00,,,0.00,0,WeatherHawk,2013-03-25 10:35:00,
2013-03-25 05:40:00,25.3,16.5,29.88,NNW,344,9.0,0.0,69,0.00,,,0.00,0,WeatherHawk,2013-03-25 10:40:00,
2013-03-25 05:45:00,25.2,16.5,29.88,North,351,9.0,0.0,69,0.00,,,0.00,0,WeatherHawk,2013-03-25 10:45:00,
2013-03-25 05:50:00,25.3,16.6,29.88,North,0,6.0,0.0,69,0.00,,,0.00,1,WeatherHawk,2013-03-25 10:50:00,
2013-03-25 05:55:00,25.2,16.5,29.88,NNW,331,5.0,-999.0,69,0.00,,,0.00,0,WeatherHawk,2013-03-25 10:55:00,
2013-03-25 06:00:00,25.2,16.5,29.88,North,0,7.0,0.0,69,0.00,,,0.00,0,WeatherHawk,2013-03-25 11:00:00,
2013-03-25 06:07:00,25.1,16.3,29.89,North,351,4.0,0.0,69,0.00,,,0.00,0,WeatherHawk,2013-03-25 11:07:00,
2013-03-25 06:12:00,25.0,16.3,29.88,North,351,7.0,0.0,69,0.00,,,0.00,0,WeatherHawk,2013-03-25 11:12:00,
2013-03-25 06:17:00,24.8,16.1,29.89,NNW,348,8.0,0.0,69,0.00,,,0.00,0,WeatherHawk,2013-03-25 11:17:00,
2013-03-25 06:22:00,24.6,16.2,29.88,NW,326,7.0,0.0,70,0.00,,,0.00,0,WeatherHawk,2013-03-25 11:22:00,
2013-03-25 06:28:00,24.3,16.0,29.89,NNW,328,10.0,0.0,70,0.00,,,0.00,0,WeatherHawk,2013-03-25 11:28:00,
2013-03-25 06:34:00,24.1,15.8,29.89,NNW,345,4.0,0.0,70,0.00,,,0.00,0,WeatherHawk,2013-03-25 11:34:00,
2013-03-25 06:39:00,23.9,15.6,29.89,NNW,347,6.0,0.0,70,0.00,,,0.00,0,WeatherHawk,2013-03-25 11:39:00,
2013-03-25 06:45:00,23.7,15.7,29.88,NE,38,5.0,0.0,71,0.00,,,0.00,1,WeatherHawk,2013-03-25 11:45:00,
2013-03-25 06:50:00,23.6,15.6,29.89,NNW,341,8.0,0.0,71,0.00,,,0.00,2,WeatherHawk,2013-03-25 11:50:00,
2013-03-25 06:55:00,23.4,15.7,29.89,NNW,338,6.0,0.0,72,0.00,,,0.00,5,WeatherHawk,2013-03-25 11:55:00,
2013-03-25 07:00:00,23.4,16.0,29.89,NE,38,6.0,0.0,73,0.00,,,0.00,11,WeatherHawk,2013-03-25 12:00:00,
2013-03-25 07:05:00,23.4,16.0,29.89,NNW,337,6.0,0.0,73,0.00,,,0.00,15,WeatherHawk,2013-03-25 12:05:00,
2013-03-25 07:10:00,23.3,16.0,29.89,NNW,333,8.0,0.0,73,0.00,,,0.00,21,WeatherHawk,2013-03-25 12:10:00,
2013-03-25 07:15:00,23.3,16.0,29.89,NNW,345,4.0,0.0,73,0.00,,,0.00,27,WeatherHawk,2013-03-25 12:15:00,
2013-03-25 07:20:00,23.3,16.0,29.89,NNW,333,8.0,0.0,73,0.00,,,0.00,31,WeatherHawk,2013-03-25 12:20:00,
2013-03-25 07:25:00,23.4,16.0,29.89,NNE,13,6.0,0.0,73,0.00,,,0.00,36,WeatherHawk,2013-03-25 12:25:00,
2013-03-25 07:30:00,23.4,16.0,29.89,NNW,337,7.0,0.0,73,0.00,,,0.00,39,WeatherHawk,2013-03-25 12:30:00,
2013-03-25 07:35:00,23.3,16.0,29.89,NNW,346,8.0,0.0,73,0.00,,,0.00,48,WeatherHawk,2013-03-25 12:35:00,
2013-03-25 07:40:00,23.5,16.1,29.89,North,0,7.0,0.0,73,0.00,,,0.00,69,WeatherHawk,2013-03-25 12:40:00,
2013-03-25 07:45:00,23.6,16.3,29.90,NNW,346,2.0,0.0,73,0.00,,,0.00,54,WeatherHawk,2013-03-25 12:45:00,
2013-03-25 07:50:00,23.5,15.9,29.90,NNW,347,6.0,0.0,72,0.00,,,0.00,62,WeatherHawk,2013-03-25 12:50:00,
2013-03-25 07:55:00,23.6,15.9,29.90,North,2,5.0,0.0,72,0.00,,,0.00,65,WeatherHawk,2013-03-25 12:55:00,
2013-03-25 08:00:00,23.7,16.0,29.90,NNW,333,5.0,0.0,72,0.00,,,0.00,88,WeatherHawk,2013-03-25 13:00:00,
2013-03-25 08:06:00,23.8,16.1,29.90,NNE,27,6.0,0.0,72,0.00,,,0.00,114,WeatherHawk,2013-03-25 13:06:00,
2013-03-25 08:11:00,24.1,16.0,29.90,West,279,7.0,0.0,71,0.00,,,0.00,123,WeatherHawk,2013-03-25 13:11:00,
2013-03-25 08:17:00,24.1,16.1,29.90,NNW,345,9.0,0.0,71,0.00,,,0.00,129,WeatherHawk,2013-03-25 13:17:00,
2013-03-25 08:23:00,24.4,16.0,29.91,NW,324,8.0,0.0,70,0.00,,,0.00,159,WeatherHawk,2013-03-25 13:23:00,
2013-03-25 08:28:00,24.7,16.0,29.91,North,0,11.0,0.0,69,0.00,,,0.00,201,WeatherHawk,2013-03-25 13:28:00,
2013-03-25 08:34:00,25.0,16.0,29.91,NNW,338,6.0,0.0,68,0.00,,,0.00,222,WeatherHawk,2013-03-25 13:34:00,
2013-03-25 08:39:00,24.9,15.5,29.90,NW,325,7.0,0.0,67,0.00,,,0.00,207,WeatherHawk,2013-03-25 13:39:00,
2013-03-25 08:44:00,25.0,15.6,29.91,NW,325,7.0,0.0,67,0.00,,,0.00,211,WeatherHawk,2013-03-25 13:44:00,
2013-03-25 08:50:00,25.2,15.8,29.91,NNW,333,8.0,0.0,67,0.00,,,0.00,218,WeatherHawk,2013-03-25 13:50:00,
2013-03-25 08:55:00,25.3,15.9,29.91,North,5,7.0,0.0,67,0.00,,,0.00,236,WeatherHawk,2013-03-25 13:55:00,
2013-03-25 09:00:00,25.7,15.9,29.91,North,1,6.0,0.0,66,0.00,,,0.00,232,WeatherHawk,2013-03-25 14:00:00,
2013-03-25 09:05:00,25.8,15.7,29.91,NNE,25,8.0,0.0,65,0.00,,,0.00,294,WeatherHawk,2013-03-25 14:05:00,
2013-03-25 09:10:00,26.3,16.1,29.90,North,351,7.0,0.0,65,0.00,,,0.00,236,WeatherHawk,2013-03-25 14:10:00,
2013-03-25 09:15:00,26.1,15.9,29.91,NNW,348,10.0,0.0,65,0.00,,,0.00,228,WeatherHawk,2013-03-25 14:15:00,
2013-03-25 09:20:00,26.4,15.9,29.91,North,3,5.0,0.0,64,0.00,,,0.00,234,WeatherHawk,2013-03-25 14:20:00,
2013-03-25 09:25:00,26.9,16.1,29.91,NNW,343,8.0,0.0,63,0.00,,,0.00,304,WeatherHawk,2013-03-25 14:25:00,
2013-03-25 09:30:00,27.0,15.4,29.92,NNW,329,7.0,0.0,61,0.00,,,0.00,290,WeatherHawk,2013-03-25 14:30:00,
2013-03-25 09:35:00,27.5,15.8,29.91,NW,322,7.0,0.0,61,0.00,,,0.00,303,WeatherHawk,2013-03-25 14:35:00,
2013-03-25 09:40:00,27.2,15.2,29.92,North,1,7.0,0.0,60,0.00,,,0.00,254,WeatherHawk,2013-03-25 14:40:00,
2013-03-25 09:45:00,27.9,15.8,29.92,NE,45,8.0,0.0,60,0.00,,,0.00,264,WeatherHawk,2013-03-25 14:45:00,
2013-03-25 09:50:00,28.8,15.5,29.93,NNW,327,10.0,0.0,57,0.00,,,0.00,481,WeatherHawk,2013-03-25 14:50:00,
2013-03-25 09:55:00,28.9,15.6,29.92,NNE,25,6.0,0.0,57,0.00,,,0.00,350,WeatherHawk,2013-03-25 14:55:00,
2013-03-25 10:00:00,28.6,15.0,29.92,NNE,17,9.0,0.0,56,0.00,,,0.00,422,WeatherHawk,2013-03-25 15:00:00,
2013-03-25 10:05:00,30.9,17.4,29.93,North,351,6.0,0.0,57,0.00,,,0.00,618,WeatherHawk,2013-03-25 15:05:00,
2013-03-25 10:10:00,30.2,15.6,29.93,NNW,347,9.0,0.0,54,0.00,,,0.00,584,WeatherHawk,2013-03-25 15:10:00,
2013-03-25 10:15:00,29.7,13.8,29.93,North,350,10.0,0.0,51,0.00,,,0.00,423,WeatherHawk,2013-03-25 15:15:00,
2013-03-25 10:20:00,29.2,15.0,29.93,NNW,342,11.0,0.0,55,0.00,,,0.00,412,WeatherHawk,2013-03-25 15:20:00,
2013-03-25 10:25:00,29.6,15.5,29.93,NNE,23,10.0,0.0,55,0.00,,,0.00,435,WeatherHawk,2013-03-25 15:25:00,
2013-03-25 10:30:00,29.7,15.6,29.93,North,2,8.0,0.0,55,0.00,,,0.00,446,WeatherHawk,2013-03-25 15:30:00,
2013-03-25 10:35:00,30.4,16.2,29.93,North,0,8.0,0.0,55,0.00,,,0.00,444,WeatherHawk,2013-03-25 15:35:00,
2013-03-25 10:40:00,29.9,15.7,29.93,NW,306,9.0,0.0,55,0.00,,,0.00,403,WeatherHawk,2013-03-25 15:40:00,
2013-03-25 10:45:00,30.2,15.1,29.94,NE,39,8.0,0.0,53,0.00,,,0.00,417,WeatherHawk,2013-03-25 15:45:00,
2013-03-25 10:50:00,33.6,18.3,29.94,North,351,9.0,-999.0,53,0.00,,,0.00,794,WeatherHawk,2013-03-25 15:50:00,
2013-03-25 10:55:00,31.6,15.5,29.94,NNE,26,7.0,0.0,51,0.00,,,0.00,570,WeatherHawk,2013-03-25 15:55:00,
2013-03-25 11:00:00,30.9,15.0,29.94,North,7,8.0,0.0,51,0.00,,,0.00,376,WeatherHawk,2013-03-25 16:00:00,
2013-03-25 11:05:00,32.0,16.0,29.94,NNE,26,8.0,0.0,51,0.00,,,0.00,736,WeatherHawk,2013-03-25 16:05:00,
2013-03-25 11:10:00,31.9,15.0,29.95,NNE,22,8.0,0.0,49,0.00,,,0.00,687,WeatherHawk,2013-03-25 16:10:00,
2013-03-25 11:15:00,31.9,14.0,29.94,North,350,10.0,0.0,47,0.00,,,0.00,691,WeatherHawk,2013-03-25 16:15:00,
2013-03-25 11:20:00,32.4,14.4,29.95,North,4,6.0,0.0,47,0.00,,,0.00,630,WeatherHawk,2013-03-25 16:20:00,
2013-03-25 11:25:00,32.4,12.9,29.95,NNW,339,7.0,0.0,44,0.00,,,0.00,776,WeatherHawk,2013-03-25 16:25:00,
2013-03-25 11:30:00,33.6,14.6,29.96,North,349,6.0,0.0,45,0.00,,,0.00,741,WeatherHawk,2013-03-25 16:30:00,
2013-03-25 11:35:00,32.7,12.7,29.95,NNE,13,12.0,0.0,43,0.00,,,0.00,741,WeatherHawk,2013-03-25 16:35:00,
2013-03-25 11:40:00,33.6,12.4,29.95,NE,34,8.0,0.0,41,0.00,,,0.00,731,WeatherHawk,2013-03-25 16:40:00,
2013-03-25 11:45:00,32.3,11.8,29.95,NNE,25,10.0,0.0,42,0.00,,,0.00,623,WeatherHawk,2013-03-25 16:45:00,
2013-03-25 11:50:00,33.4,13.4,29.95,North,350,8.0,0.0,43,0.00,,,0.00,586,WeatherHawk,2013-03-25 16:50:00,
2013-03-25 11:55:00,32.8,12.7,29.96,North,6,9.0,0.0,43,0.00,,,0.00,631,WeatherHawk,2013-03-25 16:55:00,
2013-03-25 12:00:00,31.7,12.3,29.96,NNE,24,11.0,0.0,44,0.00,,,0.00,616,WeatherHawk,2013-03-25 17:00:00,
2013-03-25 12:05:00,34.5,14.3,29.96,NNW,346,6.0,0.0,43,0.00,,,0.00,802,WeatherHawk,2013-03-25 17:05:00,
2013-03-25 12:10:00,33.5,12.9,29.96,NNW,345,8.0,0.0,42,0.00,,,0.00,892,WeatherHawk,2013-03-25 17:10:00,
2013-03-25 12:15:00,33.8,12.7,29.95,North,5,9.0,0.0,41,0.00,,,0.00,720,WeatherHawk,2013-03-25 17:15:00,
2013-03-25 12:20:00,34.2,13.5,29.95,NNW,347,8.0,0.0,42,0.00,,,0.00,762,WeatherHawk,2013-03-25 17:20:00,
2013-03-25 12:25:00,32.5,12.6,29.96,North,351,8.0,0.0,43,0.00,,,0.00,436,WeatherHawk,2013-03-25 17:25:00,
2013-03-25 12:30:00,32.4,12.4,29.96,NNW,346,10.0,0.0,43,0.00,,,0.00,463,WeatherHawk,2013-03-25 17:30:00,
2013-03-25 12:35:00,31.9,12.5,29.95,NNE,24,8.0,-999.0,44,0.00,,,0.00,425,WeatherHawk,2013-03-25 17:35:00,
2013-03-25 12:40:00,32.7,14.2,29.96,North,9,6.0,0.0,46,0.00,,,0.00,416,WeatherHawk,2013-03-25 17:40:00,
2013-03-25 12:45:00,32.2,13.3,29.95,NNE,17,10.0,0.0,45,0.00,,,0.00,393,WeatherHawk,2013-03-25 17:45:00,
2013-03-25 12:50:00,32.5,14.0,29.96,NNE,26,6.0,-999.0,46,0.00,,,0.00,373,WeatherHawk,2013-03-25 17:50:00,
2013-03-25 12:55:00,32.1,13.7,29.96,North,4,9.0,0.0,46,0.00,,,0.00,345,WeatherHawk,2013-03-25 17:55:00,
2013-03-25 13:00:00,31.7,13.8,29.96,NNE,30,9.0,0.0,47,0.00,,,0.00,297,WeatherHawk,2013-03-25 18:00:00,
2013-03-25 13:05:00,31.7,14.3,29.96,North,0,8.0,0.0,48,0.00,,,0.00,274,WeatherHawk,2013-03-25 18:05:00,
2013-03-25 13:10:00,31.0,13.2,29.96,NNE,31,10.0,0.0,47,0.00,,,0.00,264,WeatherHawk,2013-03-25 18:10:00,
2013-03-25 13:15:00,31.7,14.3,29.96,North,4,8.0,0.0,48,0.00,,,0.00,262,WeatherHawk,2013-03-25 18:15:00,
2013-03-25 13:20:00,31.6,14.2,29.96,North,3,6.0,0.0,48,0.00,,,0.00,269,WeatherHawk,2013-03-25 18:20:00,
2013-03-25 13:25:00,31.8,14.8,29.97,North,9,7.0,0.0,49,0.00,,,0.00,294,WeatherHawk,2013-03-25 18:25:00,
2013-03-25 13:30:00,33.0,15.9,29.96,North,351,3.0,0.0,49,0.00,,,0.00,308,WeatherHawk,2013-03-25 18:30:00,
2013-03-25 13:35:00,31.7,14.7,29.96,NNW,345,8.0,0.0,49,0.00,,,0.00,261,WeatherHawk,2013-03-25 18:35:00,
2013-03-25 13:40:00,31.7,15.2,29.96,North,0,7.0,0.0,50,0.00,,,0.00,219,WeatherHawk,2013-03-25 18:40:00,
2013-03-25 13:45:00,31.9,15.8,29.97,North,0,5.0,0.0,51,0.00,,,0.00,215,WeatherHawk,2013-03-25 18:45:00,
2013-03-25 13:50:00,31.5,15.4,29.97,North,3,9.0,0.0,51,0.00,,,0.00,211,WeatherHawk,2013-03-25 18:50:00,
2013-03-25 13:55:00,31.6,15.6,29.97,North,351,8.0,0.0,51,0.00,,,0.00,178,WeatherHawk,2013-03-25 18:55:00,
2013-03-25 14:00:00,31.5,15.5,29.97,NNE,22,11.0,0.0,51,0.00,,,0.00,164,WeatherHawk,2013-03-25 19:00:00,
2013-03-25 14:05:00,31.4,15.4,29.97,North,10,9.0,0.0,51,0.00,,,0.00,215,WeatherHawk,2013-03-25 19:05:00,
2013-03-25 14:10:00,31.5,15.5,29.97,North,0,8.0,0.0,51,0.00,,,0.00,220,WeatherHawk,2013-03-25 19:10:00,
2013-03-25 14:15:00,32.2,16.1,29.97,NNW,342,5.0,0.0,51,0.00,,,0.00,231,WeatherHawk,2013-03-25 19:15:00,
2013-03-25 14:22:00,32.5,15.9,29.97,NNW,346,5.0,0.0,50,0.00,,,0.00,276,WeatherHawk,2013-03-25 19:22:00,
2013-03-25 14:27:00,31.8,15.3,29.97,NE,35,6.0,0.0,50,0.00,,,0.00,211,WeatherHawk,2013-03-25 19:27:00,
2013-03-25 14:32:00,32.0,16.4,29.97,NNE,12,5.0,0.0,52,0.00,,,0.00,227,WeatherHawk,2013-03-25 19:32:00,
2013-03-25 14:37:00,32.0,15.9,29.97,NNW,328,6.0,0.0,51,0.00,,,0.00,229,WeatherHawk,2013-03-25 19:37:00,
2013-03-25 14:43:00,32.3,16.7,29.97,North,351,4.0,0.0,52,0.00,,,0.00,216,WeatherHawk,2013-03-25 19:43:00,
2013-03-25 14:48:00,32.0,16.4,29.98,NNW,335,4.0,0.0,52,0.00,,,0.00,208,WeatherHawk,2013-03-25 19:48:00,
2013-03-25 14:53:00,32.2,17.0,29.97,NNW,331,6.0,0.0,53,0.00,,,0.00,176,WeatherHawk,2013-03-25 19:53:00,
2013-03-25 14:58:00,31.7,16.6,29.98,North,8,7.0,0.0,53,0.00,,,0.00,184,WeatherHawk,2013-03-25 19:58:00,
2013-03-25 15:04:00,31.9,16.3,29.98,NNW,348,8.0,0.0,52,0.00,,,0.00,248,WeatherHawk,2013-03-25 20:04:00,
2013-03-25 15:09:00,32.0,16.4,29.98,NNW,343,8.0,0.0,52,0.00,,,0.00,225,WeatherHawk,2013-03-25 20:09:00,
2013-03-25 15:14:00,32.2,17.0,29.97,North,351,8.0,0.0,53,0.00,,,0.00,221,WeatherHawk,2013-03-25 20:14:00,
2013-03-25 15:20:00,32.7,17.5,29.98,NNW,346,5.0,0.0,53,0.00,,,0.00,221,WeatherHawk,2013-03-25 20:20:00,
2013-03-25 15:25:00,32.4,16.3,29.98,NNW,345,10.0,0.0,51,0.00,,,0.00,237,WeatherHawk,2013-03-25 20:25:00,
2013-03-25 15:31:00,32.1,16.1,29.97,NW,323,10.0,0.0,51,0.00,,,0.00,238,WeatherHawk,2013-03-25 20:31:00,
2013-03-25 15:37:00,32.3,15.8,29.98,NNW,341,6.0,0.0,50,0.00,,,0.00,276,WeatherHawk,2013-03-25 20:37:00,
2013-03-25 15:42:00,32.8,16.2,29.97,NW,317,7.0,0.0,50,0.00,,,0.00,309,WeatherHawk,2013-03-25 20:42:00,
2013-03-25 15:47:00,32.9,15.8,29.97,North,351,6.0,0.0,49,0.00,,,0.00,285,WeatherHawk,2013-03-25 20:47:00,
2013-03-25 15:53:00,33.2,15.7,29.98,NW,323,5.0,0.0,48,0.00,,,0.00,290,WeatherHawk,2013-03-25 20:53:00,
2013-03-25 15:58:00,33.8,15.8,29.98,NW,324,2.0,0.0,47,0.00,,,0.00,269,WeatherHawk,2013-03-25 20:58:00,
2013-03-25 16:03:00,33.1,15.1,29.98,North,351,6.0,0.0,47,0.00,,,0.00,245,WeatherHawk,2013-03-25 21:03:00,
2013-03-25 16:08:00,33.1,14.6,29.99,NW,323,7.0,0.0,46,0.00,,,0.00,218,WeatherHawk,2013-03-25 21:08:00,
2013-03-25 16:14:00,33.0,15.0,29.99,NNW,342,6.0,0.0,47,0.00,,,0.00,189,WeatherHawk,2013-03-25 21:14:00,
2013-03-25 16:20:00,32.9,15.4,29.98,NNW,333,5.0,0.0,48,0.00,,,0.00,157,WeatherHawk,2013-03-25 21:20:00,
2013-03-25 16:25:00,33.1,16.5,29.98,NNW,340,3.0,0.0,50,0.00,,,0.00,154,WeatherHawk,2013-03-25 21:25:00,
2013-03-25 16:30:00,32.8,15.8,29.99,NNE,31,5.0,0.0,49,0.00,,,0.00,201,WeatherHawk,2013-03-25 21:30:00,
2013-03-25 16:35:00,33.2,16.6,29.99,NNW,338,4.0,0.0,50,0.00,,,0.00,202,WeatherHawk,2013-03-25 21:35:00,
2013-03-25 16:41:00,32.9,15.4,30.00,NNW,344,8.0,0.0,48,0.00,,,0.00,172,WeatherHawk,2013-03-25 21:41:00,
2013-03-25 16:47:00,33.4,16.7,30.00,NNW,330,3.0,0.0,50,0.00,,,0.00,147,WeatherHawk,2013-03-25 21:47:00,
2013-03-25 16:52:00,33.2,16.1,30.00,North,350,6.0,0.0,49,0.00,,,0.00,130,WeatherHawk,2013-03-25 21:52:00,
2013-03-25 16:57:00,33.1,16.0,30.00,NW,312,6.0,0.0,49,0.00,,,0.00,138,WeatherHawk,2013-03-25 21:57:00,
2013-03-25 17:02:00,33.2,16.1,30.00,West,273,5.0,0.0,49,0.00,,,0.00,132,WeatherHawk,2013-03-25 22:02:00,
2013-03-25 17:07:00,32.9,15.4,30.00,NW,325,9.0,0.0,48,0.00,,,0.00,118,WeatherHawk,2013-03-25 22:07:00,
2013-03-25 17:12:00,32.9,15.9,29.99,NW,322,8.0,0.0,49,0.00,,,0.00,99,WeatherHawk,2013-03-25 22:12:00,
2013-03-25 17:17:00,32.9,15.8,30.01,NNW,333,7.0,0.0,49,0.00,,,0.00,99,WeatherHawk,2013-03-25 22:17:00,
2013-03-25 17:23:00,33.0,16.4,30.01,North,0,4.0,0.0,50,0.00,,,0.00,98,WeatherHawk,2013-03-25 22:23:00,
2013-03-25 17:28:00,33.0,16.4,30.02,NW,308,4.0,0.0,50,0.00,,,0.00,81,WeatherHawk,2013-03-25 22:28:00,
2013-03-25 17:33:00,33.0,16.4,30.02,NNW,337,5.0,0.0,50,0.00,,,0.00,76,WeatherHawk,2013-03-25 22:33:00,
2013-03-25 17:38:00,33.0,16.4,30.01,NW,318,4.0,0.0,50,0.00,,,0.00,68,WeatherHawk,2013-03-25 22:38:00,
2013-03-25 17:43:00,33.0,16.9,30.02,NW,315,4.0,0.0,51,0.00,,,0.00,58,WeatherHawk,2013-03-25 22:43:00,
2013-03-25 17:48:00,33.0,16.9,30.01,WNW,302,4.0,0.0,51,0.00,,,0.00,51,WeatherHawk,2013-03-25 22:48:00,
2013-03-25 17:53:00,33.0,16.9,30.03,West,280,6.0,0.0,51,0.00,,,0.00,42,WeatherHawk,2013-03-25 22:53:00,
2013-03-25 17:58:00,33.1,17.4,30.02,NW,325,9.0,0.0,52,0.00,,,0.00,38,WeatherHawk,2013-03-25 22:58:00,
2013-03-25 18:03:00,33.0,17.8,30.03,NW,320,6.0,0.0,53,0.00,,,0.00,29,WeatherHawk,2013-03-25 23:03:00,
2013-03-25 18:09:00,33.0,18.2,30.02,WNW,302,4.0,0.0,54,0.00,,,0.00,25,WeatherHawk,2013-03-25 23:09:00,
2013-03-25 18:14:00,33.1,18.2,30.02,NW,325,6.0,0.0,54,0.00,,,0.00,19,WeatherHawk,2013-03-25 23:14:00,
2013-03-25 18:19:00,33.0,18.2,30.02,NNW,335,6.0,0.0,54,0.00,,,0.00,16,WeatherHawk,2013-03-25 23:19:00,
2013-03-25 18:25:00,32.9,18.5,30.02,NNW,344,3.0,0.0,55,0.00,,,0.00,15,WeatherHawk,2013-03-25 23:25:00,
2013-03-25 18:30:00,32.9,19.0,30.03,NW,324,4.0,0.0,56,0.00,,,0.00,12,WeatherHawk,2013-03-25 23:30:00,
2013-03-25 18:35:00,33.0,19.0,30.03,NW,326,4.0,0.0,56,0.00,,,0.00,11,WeatherHawk,2013-03-25 23:35:00,
2013-03-25 18:40:00,33.0,19.0,30.04,NNW,333,7.0,0.0,56,0.00,,,0.00,10,WeatherHawk,2013-03-25 23:40:00,
2013-03-25 18:45:00,33.0,19.1,30.03,NW,326,4.0,0.0,56,0.00,,,0.00,8,WeatherHawk,2013-03-25 23:45:00,
2013-03-25 18:50:00,33.1,19.1,30.03,NW,322,7.0,0.0,56,0.00,,,0.00,6,WeatherHawk,2013-03-25 23:50:00,
2013-03-25 18:55:00,33.1,19.1,30.04,NNW,327,4.0,0.0,56,0.00,,,0.00,5,WeatherHawk,2013-03-25 23:55:00,
2013-03-25 19:00:00,33.0,19.0,30.05,NW,314,5.0,0.0,56,0.00,,,0.00,4,WeatherHawk,2013-03-26 00:00:00,
2013-03-25 19:05:00,33.0,19.0,30.03,NNW,335,4.0,0.0,56,0.00,,,0.00,3,WeatherHawk,2013-03-26 00:05:00,
2013-03-25 19:10:00,32.9,19.0,30.04,WNW,283,2.0,0.0,56,0.00,,,0.00,0,WeatherHawk,2013-03-26 00:10:00,
2013-03-25 19:15:00,32.8,19.3,30.03,NW,307,2.0,0.0,57,0.00,,,0.00,0,WeatherHawk,2013-03-26 00:15:00,
2013-03-25 19:20:00,33.0,19.1,30.05,NW,315,4.0,0.0,56,0.00,,,0.00,0,WeatherHawk,2013-03-26 00:20:00,
2013-03-25 19:25:00,33.0,19.4,30.04,WNW,296,3.0,0.0,57,0.00,,,0.00,0,WeatherHawk,2013-03-26 00:25:00,
2013-03-25 19:30:00,33.0,19.0,30.04,NW,321,2.0,0.0,56,0.00,,,0.00,1,WeatherHawk,2013-03-26 00:30:00,
2013-03-25 19:35:00,33.0,19.5,30.04,WNW,303,3.0,0.0,57,0.00,,,0.00,0,WeatherHawk,2013-03-26 00:35:00,
2013-03-25 19:40:00,32.9,18.9,30.05,WNW,288,1.0,0.0,56,0.00,,,0.00,0,WeatherHawk,2013-03-26 00:40:00,
2013-03-25 19:45:00,33.1,19.1,30.04,NNW,332,5.0,0.0,56,0.00,,,0.00,0,WeatherHawk,2013-03-26 00:45:00,
2013-03-25 19:50:00,32.8,18.9,30.05,NNW,332,0.0,0.0,56,0.00,,,0.00,0,WeatherHawk,2013-03-26 00:50:00,
2013-03-25 19:55:00,32.9,19.3,30.05,NNW,330,3.0,0.0,57,0.00,,,0.00,0,WeatherHawk,2013-03-26 00:55:00,
2013-03-25 20:00:00,33.1,19.2,30.05,WNW,297,6.0,0.0,56,0.00,,,0.00,0,WeatherHawk,2013-03-26 01:00:00,
2013-03-25 20:05:00,33.0,19.1,30.05,NW,326,5.0,0.0,56,0.00,,,0.00,0,WeatherHawk,2013-03-26 01:05:00,
2013-03-25 20:10:00,33.2,19.3,30.05,NNW,338,6.0,0.0,56,0.00,,,0.00,0,WeatherHawk,2013-03-26 01:10:00,
2013-03-25 20:15:00,32.9,18.9,30.06,NW,325,3.0,0.0,56,0.00,,,0.00,0,WeatherHawk,2013-03-26 01:15:00,
2013-03-25 20:20:00,33.1,18.7,30.05,NW,310,1.0,0.0,55,0.00,,,0.00,1,WeatherHawk,2013-03-26 01:20:00,
2013-03-25 20:25:00,32.9,18.9,30.06,NW,319,4.0,0.0,56,0.00,,,0.00,0,WeatherHawk,2013-03-26 01:25:00,
2013-03-25 20:30:00,33.2,18.8,30.05,NW,324,6.0,0.0,55,0.00,,,0.00,0,WeatherHawk,2013-03-26 01:30:00,
2013-03-25 20:35:00,33.0,18.7,30.06,NNW,345,4.0,0.0,55,0.00,,,0.00,0,WeatherHawk,2013-03-26 01:35:00,
2013-03-25 20:40:00,32.7,18.8,30.06,WNW,290,0.0,0.0,56,0.00,,,0.00,1,WeatherHawk,2013-03-26 01:40:00,
2013-03-25 20:45:00,32.8,18.9,30.06,WNW,291,2.0,0.0,56,0.00,,,0.00,0,WeatherHawk,2013-03-26 01:45:00,
2013-03-25 20:50:00,33.0,19.0,30.06,NW,321,4.0,0.0,56,0.00,,,0.00,0,WeatherHawk,2013-03-26 01:50:00,
2013-03-25 20:55:00,32.7,18.7,30.06,West,280,0.0,0.0,56,0.00,,,0.00,0,WeatherHawk,2013-03-26 01:55:00,
2013-03-25 21:00:00,32.9,18.5,30.06,NW,311,1.0,0.0,55,0.00,,,0.00,0,WeatherHawk,2013-03-26 02:00:00,
2013-03-25 21:05:00,32.6,18.7,30.06,NW,315,0.0,0.0,56,0.00,,,0.00,0,WeatherHawk,2013-03-26 02:05:00,
2013-03-25 21:10:00,32.7,18.8,30.06,West,261,1.0,0.0,56,0.00,,,0.00,0,WeatherHawk,2013-03-26 02:10:00,
2013-03-25 21:15:00,32.8,19.3,30.07,WNW,295,1.0,0.0,57,0.00,,,0.00,0,WeatherHawk,2013-03-26 02:15:00,
2013-03-25 21:20:00,32.7,19.5,30.06,WNW,295,3.0,0.0,58,0.00,,,0.00,0,WeatherHawk,2013-03-26 02:20:00,
2013-03-25 21:25:00,32.5,19.4,30.07,WNW,301,0.0,0.0,58,0.00,,,0.00,0,WeatherHawk,2013-03-26 02:25:00,
2013-03-25 21:30:00,32.7,19.6,30.07,WNW,283,1.0,0.0,58,0.00,,,0.00,0,WeatherHawk,2013-03-26 02:30:00,
2013-03-25 21:35:00,32.6,19.5,30.07,West,268,2.0,-999.0,58,0.00,,,0.00,0,WeatherHawk,2013-03-26 02:35:00,
2013-03-25 21:40:00,32.6,19.5,30.07,WNW,303,1.0,0.0,58,0.00,,,0.00,0,WeatherHawk,2013-03-26 02:40:00,
2013-03-25 21:45:00,33.0,19.4,30.07,NW,326,1.0,0.0,57,0.00,,,0.00,0,WeatherHawk,2013-03-26 02:45:00,
2013-03-25 21:50:00,32.9,19.3,30.07,NW,314,3.0,0.0,57,0.00,,,0.00,0,WeatherHawk,2013-03-26 02:50:00,
2013-03-25 21:55:00,32.9,18.5,30.08,NNW,331,1.0,0.0,55,0.00,,,0.00,0,WeatherHawk,2013-03-26 02:55:00,
2013-03-25 22:00:00,33.2,18.8,30.08,NNW,339,6.0,0.0,55,0.00,,,0.00,0,WeatherHawk,2013-03-26 03:00:00,
2013-03-25 22:05:00,33.2,18.3,30.08,NW,325,5.0,0.0,54,0.00,,,0.00,0,WeatherHawk,2013-03-26 03:05:00,
2013-03-25 22:10:00,33.2,18.4,30.08,NW,324,6.0,0.0,54,0.00,,,0.00,1,WeatherHawk,2013-03-26 03:10:00,
2013-03-25 22:15:00,33.1,18.3,30.08,NW,312,5.0,0.0,54,0.00,,,0.00,1,WeatherHawk,2013-03-26 03:15:00,
2013-03-25 22:20:00,33.1,18.3,30.07,NNW,329,6.0,0.0,54,0.00,,,0.00,0,WeatherHawk,2013-03-26 03:20:00,
2013-03-25 22:25:00,33.0,18.2,30.07,West,281,5.0,0.0,54,0.00,,,0.00,0,WeatherHawk,2013-03-26 03:25:00,
2013-03-25 22:30:00,32.9,18.5,30.08,NW,318,3.0,0.0,55,0.00,,,0.00,0,WeatherHawk,2013-03-26 03:30:00,
2013-03-25 22:35:00,32.8,18.4,30.08,NW,321,3.0,0.0,55,0.00,,,0.00,0,WeatherHawk,2013-03-26 03:35:00,
2013-03-25 22:40:00,32.8,18.8,30.07,NNW,329,4.0,0.0,56,0.00,,,0.00,0,WeatherHawk,2013-03-26 03:40:00,
2013-03-25 22:45:00,32.9,18.5,30.08,NW,313,6.0,0.0,55,0.00,,,0.00,0,WeatherHawk,2013-03-26 03:45:00,
2013-03-25 22:50:00,32.8,18.5,30.09,NNW,330,6.0,0.0,55,0.00,,,0.00,0,WeatherHawk,2013-03-26 03:50:00,
2013-03-25 22:55:00,32.6,18.7,30.08,NW,308,4.0,0.0,56,0.00,,,0.00,0,WeatherHawk,2013-03-26 03:55:00,
2013-03-25 23:00:00,32.6,18.6,30.08,NNW,332,5.0,0.0,56,0.00,,,0.00,0,WeatherHawk,2013-03-26 04:00:00,
2013-03-25 23:03:00,32.7,18.3,30.08,NW,315,5.0,0.0,55,0.00,,,0.00,0,WeatherHawk,2013-03-26 04:03:00,
2013-03-25 23:08:00,32.7,18.3,30.08,NW,325,5.0,0.0,55,0.00,,,0.00,0,WeatherHawk,2013-03-26 04:08:00,
2013-03-25 23:13:00,32.6,18.2,30.08,NW,322,4.0,0.0,55,0.00,,,0.00,0,WeatherHawk,2013-03-26 04:13:00,
2013-03-25 23:18:00,32.7,17.9,30.08,WNW,303,5.0,0.0,54,0.00,,,0.00,0,WeatherHawk,2013-03-26 04:18:00,
2013-03-25 23:23:00,32.8,18.1,30.08,NNW,330,7.0,0.0,54,0.00,,,0.00,0,WeatherHawk,2013-03-26 04:23:00,
2013-03-25 23:28:00,32.8,18.0,30.08,NW,305,7.0,0.0,54,0.00,,,0.00,0,WeatherHawk,2013-03-26 04:28:00,
2013-03-25 23:33:00,32.9,17.6,30.08,NW,321,10.0,0.0,53,0.00,,,0.00,0,WeatherHawk,2013-03-26 04:33:00,
2013-03-25 23:38:00,32.6,17.8,30.08,NW,317,5.0,0.0,54,0.00,,,0.00,0,WeatherHawk,2013-03-26 04:38:00,
2013-03-25 23:43:00,32.7,17.4,30.09,NNW,328,5.0,0.0,53,0.00,,,0.00,0,WeatherHawk,2013-03-26 04:43:00,
2013-03-25 23:48:00,32.4,17.6,30.09,NW,325,5.0,0.0,54,0.00,,,0.00,0,WeatherHawk,2013-03-26 04:48:00,
2013-03-25 23:54:00,32.6,17.8,30.09,NNW,341,6.0,0.0,54,0.00,,,0.00,0,WeatherHawk,2013-03-26 04:54:00,
2013-03-25 23:59:00,32.4,17.6,30.09,NNW,332,2.0,0.0,54,0.00,,,0.00,0,WeatherHawk,2013-03-26 04:59:00,